Regional Weather Roundup
Issued by NWS

Home | Current Version | Previous Version | Text Only | Print | Product List | Glossary On
Versions: 1 2 3 4 5 6 7 8 9 10 11 12 13 14 15 16 17 18 19 20 21 22 23 24 25 26 27 28 29 30 31 32 33 34 35 36 37 38 39 40 41 42 43 44 45 46 47 48 49 50
000
ASUS43 KTOP 251308
RWRKS

WEATHER ROUNDUP FOR KANSAS
NATIONAL WEATHER SERVICE GOODLAND KS
800 AM CDT SUN SEP 25 2016

NOTE:  "FAIR" INDICATES FEW OR NO CLOUDS BELOW 12,000 FEET WITH NO
SIGNIFICANT WEATHER AND/OR OBSTRUCTIONS TO VISIBILITY.

KSZ001>006-013>018-027>032-041>047-251400-
NORTHWEST KANSAS

CITY           SKY/WX    TMP DP  RH WIND       PRES   REMARKS
GOODLAND       CLEAR     49  39  68 NW14      30.32R
HAYS           MOCLDY    55  39  54 N16       30.22R
HILL CITY      PTCLDY    54  44  69 NW14      30.25R HAZE
RUSSELL        MOCLDY    54  46  74 NW14      30.20R
$$

KSZ061>065-074>080-084>089-251400-
SOUTHWEST KANSAS

CITY           SKY/WX    TMP DP  RH WIND       PRES   REMARKS
DODGE CITY     PTCLDY    51  45  79 N14       30.23R
ELKHART          N/A     50  35  56 NW7         N/A
GARDEN CITY    CLOUDY    53  40  61 N17       30.26R
GREAT BEND     PTCLDY    54  43  66 N9        30.21R
LIBERAL        CLOUDY    54  43  66 N16       30.27R
PRATT          MOCLDY    53  48  83 N15       30.20R
$$

KSZ066>073-081>083-090>101-251400-
SOUTHEAST KANSAS

CITY           SKY/WX    TMP DP  RH WIND       PRES   REMARKS
CHANUTE        LGT RAIN  69  67  93 CALM      30.11R
COFFEYVILLE    CLOUDY    69  68  96 N5        30.09R
HUTCHINSON     CLOUDY    59  50  72 N14G23    30.16R
MEDICINE LODGE   N/A     58  50  75 N17G25      N/A
NEWTON         LGT RAIN N/A N/A N/A N15G24    30.14R
PARSONS        CLOUDY    69  67  93 N6        30.11R
WICHITA INTL   LGT RAIN  68  68 100 NW20G28   30.10R
WICHITA JABRA  LGT RAIN  67  66  97 NW12      30.10R
WICHITA MCCONL LGT RAIN  66  66 100 N10       30.10R
WINFIELD       LGT RAIN  67  67 100 NE7       30.10R
$$

KSZ007>012-019>026-033>040-048>060-102>105-251400-
NORTHEAST KANSAS

CITY           SKY/WX    TMP DP  RH WIND       PRES   REMARKS
CONCORDIA      CLOUDY    56  49  77 NW8       30.17R
EMPORIA        HVY RAIN  67  66  97 CALM      30.11R FOG
LAWRENCE       LGT RAIN  68  68 100 S5        30.09R
MANHATTAN      CLOUDY    61  50  67 N8        30.13R
MARYSVILLE     MOCLDY    55  52  88 N12       30.14R
OLATHE IND     LGT RAIN  68  67  96 SW7       30.10R
OLATHE EXE     LGT RAIN  67  66  97 SW3       30.09R
SALINA         CLOUDY    59  50  72 NW10      30.18R
TOPEKA BILLARD LGT RAIN  68  66  93 SW6       30.08R
TOPEKA FORBES  LGT RAIN  75  75 100 SW7       30.09R
$$




USA.gov is the U.S. government's official web portal to all federal, state and local government web resources and services.